格洛纳斯-769 COSMOS 2178 [GLONASS]

导读 | 星芒AI

COSMOS 2178 是一颗俄罗斯 GLONASS 卫星,属于全球导航卫星系统(GLONASS)的一部分,于1992年发射。该卫星运行在中地球轨道,用于提供精确的定位、导航和时间同步服务。作为 GLONASS 系统早期部署的卫星之一,COSMOS 2178 在冷战后期和苏联解体后初期发挥了重要作用。尽管其寿命已届满,但它曾为俄罗斯及国际用户提供了关键的导航支持。

基本信息
目录编号:
21854
目录名称:
COSMOS 2178 (GLONASS)
国际标识:
1992-005B
轨道中心:
EARTH
卫星名称:
格洛纳斯-769
卫星全名:
格洛纳斯-769 COSMOS 2178 [GLONASS]
卫星状态:
在轨 (已飞行12330 天)
发射日期:
1992-01-29 UTC
国别 :
俄罗斯(独联体) (CIS)
星等 :
--
轨道信息
数据来源 国际轨道数据 AOE轨道数据
星历时间 2025-10-28T14:39:39+0800
3天前
查看轨道信息
2025-10-28T03:00:00+0800
4天前
查看轨道信息
半长轴 25507.714km 25507.722km
偏心率 0.0031337 0.003128
轨道倾角 64.754° 64.753°
近地点辐角 32.208° 32.163°
升交点赤经 77.979° 77.996°
平近点角 330.274° 317.574°
近地点 19049.645km 19049.798km
远地点 19209.513km 19209.376km
周期 675.720分钟 675.721分钟
每日圈数 2.131059 2.131058
详细信息
平衡模式:
三轴稳定
覆盖范围:
全球
运营商:
列舍特涅夫卫星信息系统
运营商所在国:
俄罗斯
制造商(研发单位):
列舍特涅夫卫星信息系统
制造商所在国:
俄罗斯
使用方式:
暂无
卫星简介
格洛纳斯(GLONASS )是苏联/俄罗斯研制卫星导航系统。标准配置为24颗卫星,其中18颗卫星就能保证该系统为俄罗斯境内用户提供全部服务。该卫星已退役。
2D轨道图
3D轨道图
轨道高度分析图
轨道倾角分析图
轨道综合分析图
查看轨道综合分析图